Regional Weather Roundup
Issued by NWS

Home | Current Version | Previous Version | Graphics & Text | Print | Product List | Glossary On
Versions: 1 2 3 4 5 6 7 8 9 10 11 12 13 14 15 16 17 18 19 20 21 22 23 24 25 26 27 28 29 30 31 32 33 34 35 36 37 38 39 40 41 42 43 44 45 46 47 48 49 50
000
ASUS43 KTOP 200308
RWRKS

WEATHER ROUNDUP FOR KANSAS
NATIONAL WEATHER SERVICE GOODLAND KS
1000 PM CDT SAT APR 19 2014

NOTE:  "FAIR" INDICATES FEW OR NO CLOUDS BELOW 12,000 FEET WITH NO
SIGNIFICANT WEATHER AND/OR OBSTRUCTIONS TO VISIBILITY.

KSZ001>006-013>018-027>032-041>047-200400-
NORTHWEST KANSAS

CITY           SKY/WX    TMP DP  RH WIND       PRES   REMARKS
GOODLAND       MOCLDY    57  50  77 E12       30.02R
HAYS           CLOUDY    70  48  46 S13       29.96R
HILL CITY      CLOUDY    67  54  63 W12       29.97R
RUSSELL        MOCLDY    68  50  52 S17       29.94R
$$

KSZ061>065-074>080-084>089-200400-
SOUTHWEST KANSAS

CITY           SKY/WX    TMP DP  RH WIND       PRES   REMARKS
DODGE CITY     MOCLDY    65  46  50 S15       29.99R
ELKHART          N/A     61  45  56 S10         N/A
GARDEN CITY    MOCLDY    64  49  57 S7        29.99R
GREAT BEND     MOCLDY    66  50  55 S14       29.96R
LIBERAL        CLOUDY    64  45  48 S14       30.01R
PRATT          PTCLDY    68  48  49 S16       30.01R
$$

KSZ066>073-081>083-090>101-200400-
SOUTHEAST KANSAS

CITY           SKY/WX    TMP DP  RH WIND       PRES   REMARKS
CHANUTE        MOCLDY    63  46  54 S9        30.09R
COFFEYVILLE    CLOUDY    65  47  52 SE8       30.08S
HUTCHINSON     PTCLDY    67  49  52 S13       30.01R
MEDICINE LODGE   N/A     67  50  54 S10       30.01R
NEWTON         PTCLDY    64  45  48 S10       30.07R
PARSONS        CLOUDY    67  45  45 SE5       30.10R
WICHITA INTL   PTCLDY    67  48  50 S14       30.03R
WICHITA JABRA  CLEAR     66  49  54 S10       30.04R
WICHITA MCCONL CLEAR     67  50  53 S15       30.04R
WINFIELD       PTCLDY    62  48  60 S8        30.07R
$$

KSZ007>012-019>026-033>040-048>060-102>105-200400-
NORTHEAST KANSAS

CITY           SKY/WX    TMP DP  RH WIND       PRES   REMARKS
CONCORDIA      CLEAR     71  49  45 S16G22    29.97R
EMPORIA        PTCLDY    63  46  54 SE14      30.05R HAZE
LAWRENCE       PTCLDY    60  46  59 SE8       30.07R
MANHATTAN      PTCLDY    68  46  45 S9        30.02R
OLATHE IND     CLEAR     63  43  48 SE8       30.10R
OLATHE EXE     PTCLDY    61  45  55 S6        30.09R
SALINA         PTCLDY    70  49  47 S16       29.99R
TOPEKA BILLARD MOCLDY    66  44  45 SE8       30.06R
TOPEKA FORBES  MOCLDY    65  44  46 SE10      30.06R
$$



USA.gov is the U.S. government's official web portal to all federal, state and local government web resources and services.